Location: Nitra
(0.0000°N, 18.0833°E)
Time: 19:03:48
(UTC+01:00)

Cosmos 1553 Rocket - Pass Details

Date: 24 January 2021
Orbit: 941 x 1008 km, 82.9° (Epoch: 01 March)

Event Time Altitude Azimuth Distance (km) Brightness Sun altitude
Rises 18:52:41 0° 13° (NNE) 3,690 6.7 -12.5°
Reaches altitude 10° 18:55:26 10° 22° (NNE) 2,735 6.0 -13.1°
Maximum altitude 19:01:06 36° 87° (E) 1,484 4.5 -14.5°
Drops below altitude 10° 19:06:42 10° 152° (SSE) 2,702 6.2 -15.8°
Sets 19:09:23 0° 160° (SSE) 3,641 7.0 -16.4°
